Randolph AFB, TX

12:20 PM CDT on March 26, 2017 (GMT -0500)
Randolph Air Force Base

Weather History for KRND - December, 2015

Change the Weather History Date:

Friday, December 4, 2015

  Actual Average Record
Temperature  
Mean Temperature 48 °F -  
Max Temperature 62 °F 63 °F 78 °F (2010)
Min Temperature 35 °F 45 °F 26 °F (2006)
Degree Days  
Heating Degree Days 16    
Moisture  
Dew Point 37 °F    
Average Humidity 72    
Maximum Humidity 95    
Minimum Humidity 39    
Precipitation  
Precipitation 0.00 in - - ()
Sea Level Pressure  
Sea Level Pressure 30.42 in    
Wind  
Wind Speed 7 mph (NE)    
Max Wind Speed 9 mph    
Max Gust Speed -    
Visibility 10 miles    
Events      
Averages and records for this station are not official NWS values.
T = Trace of Precipitation, MM = Missing Value Source: NWS Daily Summary

Daily Weather History Graph

Daily Weather History Graph

Search for Another Location

Airport or City:

Trip Planner

Search our weather history database for the weather conditions in past years. The results will help you decide how hot, cold, wet, or windy it might be!

Date:

Astronomy

Dec. 04, 2015 Rise Set
Actual Time 7:12 AM CST 5:33 PM CST
Civil Twilight 6:46 AM CST 5:59 PM CST
Nautical Twilight 6:17 AM CST 6:29 PM CST
Astronomical Twilight 5:48 AM CST 6:58 PM CST
Moon 1:08 AM CST (12/4) 1:35 PM CST (12/4)
Length of Visible Light 11h 13m
Length of Day
10h 21m
Last Quarter, 37% of the Moon is Illuminated
Dec 4
Last Quarter
Dec 11
New
Dec 18
First Quarter
Dec 25
Full
Jan 1
Last Quarter

Hourly Weather History & Observations

Time (CST) Temp. Windchill Dew Point Humidity Pressure Visibility Wind Dir Wind Speed Gust Speed Precip Events Conditions
12:58 AM 38.5 °F 32.7 °F 36.1 °F 91% 30.40 in 10.0 mi NW 8.1 mph - N/A   Clear
1:58 AM 37.6 °F 31.6 °F 34.9 °F 90% 30.40 in 10.0 mi NW 8.1 mph - N/A   Clear
2:58 AM 37.2 °F 30.6 °F 34.9 °F 91% 30.39 in 10.0 mi NW 9.2 mph - N/A   Clear
3:58 AM 36.9 °F 30.7 °F 34.9 °F 93% 30.40 in 10.0 mi NNW 8.1 mph - N/A   Clear
4:58 AM 36.3 °F 30.1 °F 34.3 °F 93% 30.40 in 10.0 mi NW 8.1 mph - N/A   Clear
5:58 AM 35.8 °F 29.4 °F 34.2 °F 94% 30.42 in 10.0 mi NW 8.1 mph - N/A   Clear
6:58 AM 35.4 °F 30.5 °F 33.6 °F 93% 30.43 in 10.0 mi NNE 5.8 mph - N/A   Clear
7:58 AM 37.9 °F 34.4 °F 35.8 °F 92% 30.46 in 10.0 mi North 4.6 mph - N/A   Clear
8:58 AM 48.0 °F - 39.6 °F 73% 30.47 in 10.0 mi NE 3.5 mph - N/A   Clear
9:58 AM 52.5 °F - 40.6 °F 64% 30.49 in 7.0 mi ESE 8.1 mph - N/A   Clear
10:58 AM 55.9 °F - 39.4 °F 54% 30.49 in 10.0 mi East 5.8 mph - N/A   Clear
11:58 AM 58.6 °F - 39.2 °F 48% 30.47 in 10.0 mi ESE 9.2 mph - N/A   Clear
12:55 PM 60.6 °F - 36.9 °F 41% 30.43 in 10.0 mi ESE 6.9 mph - N/A   Clear
1:58 PM 61.7 °F - 36.7 °F 39% 30.41 in 7.0 mi East 8.1 mph - N/A   Clear
2:58 PM 62.2 °F - 36.7 °F 39% 30.39 in 8.0 mi East 6.9 mph - N/A   Clear
3:58 PM 62.4 °F - 37.4 °F 40% 30.38 in 10.0 mi East 3.5 mph - N/A   Clear
4:58 PM 60.1 °F - 38.8 °F 45% 30.38 in 10.0 mi ESE 5.8 mph - N/A   Clear
5:58 PM 55.8 °F - 38.3 °F 52% 30.39 in 10.0 mi ESE 4.6 mph - N/A   Clear
6:58 PM 50.7 °F - 38.8 °F 64% 30.40 in 10.0 mi ESE 4.6 mph - N/A   Clear
7:58 PM 48.0 °F - 40.3 °F 75% 30.41 in 10.0 mi Calm Calm - N/A   Clear
8:58 PM 47.3 °F - 39.7 °F 75% 30.43 in 10.0 mi Calm Calm - N/A   Clear
9:58 PM 42.6 °F - 39.6 °F 89% 30.44 in 10.0 mi Calm Calm - N/A   Clear
10:58 PM 40.6 °F 38.6 °F 38.8 °F 93% 30.45 in 10.0 mi North 3.5 mph - N/A   Clear
11:58 PM 38.8 °F 36.5 °F 37.4 °F 95% 30.44 in 10.0 mi North 3.5 mph - N/A   Clear